Location: Vidojevica
(43.1414°N, 21.5558°E)
Time: 12:34:48
(UTC+02:00)

Tiangong 2 - Visible Passes

Search period start: 18 August 2018 00:00
Search period end: 28 August 2018 00:00
Orbit: 384 x 395 km, 42.8° (Epoch: 17 August)

Date Brightness Start Highest point End Pass type
(mag) Time Alt. Az. Time Alt. Az. Time Alt. Az.
18 Aug 2.0 04:52:51 12° SW 04:55:29 38° SSE 04:58:30 10° E visible
19 Aug 2.5 03:57:39 25° SSE 03:57:44 25° SSE 04:00:28 10° E visible
20 Aug 1.3 04:34:45 23° WSW 04:36:31 57° SSE 04:39:40 10° E visible
21 Aug 2.4 03:39:31 33° ESE 03:39:31 33° ESE 03:41:44 10° E visible
21 Aug 1.1 05:12:14 10° W 05:15:26 85° S 05:18:40 10° E visible
22 Aug 1.0 04:16:36 41° WSW 04:17:34 76° S 04:20:46 10° E visible
23 Aug 3.2 03:21:23 24° E 03:21:23 24° E 03:22:51 10° E visible
23 Aug 1.0 04:53:42 13° W 04:56:31 85° S 04:59:44 10° E visible
24 Aug 0.9 03:58:31 83° SW 03:58:37 86° S 04:01:49 10° E visible
25 Aug 4.1 03:03:24 14° E 03:03:24 14° E 03:03:55 10° E visible
25 Aug 1.0 04:35:44 23° W 04:37:34 73° S 04:40:45 10° ESE visible
26 Aug 2.3 03:40:43 39° E 03:40:43 39° E 03:42:51 10° E visible
26 Aug 1.8 05:13:23 10° W 05:16:22 37° SSW 05:19:22 10° SE visible
27 Aug 1.2 04:18:10 49° SW 04:18:33 53° SSW 04:21:40 10° ESE visible
